Location: Shandelee
(41.8790°N, 74.8713°W)
Time: 04:05:38
(UTC+00:00)

Okean-O - Pass Details

Date: 29 October 2020
Orbit: 638 x 641 km, 98.2° (Epoch: 23 November)

Event Time Altitude Azimuth Distance (km) Brightness Sun altitude
Rises 22:50:50 0° 143° (SE) 2,934 5.8 -10.6°
Reaches altitude 10° 22:53:10 10° 134° (SE) 2,029 4.9 -11.0°
Maximum altitude 22:57:10 35° 70° (ENE) 1,045 3.2 -11.8°
Drops below altitude 10° 23:01:12 10° 5° (N) 2,041 5.1 -12.5°
Sets 23:03:33 0° 356° (N) 2,955 6.0 -12.9°
